Voltar ao catálogo

DELTA 1 DEB

AtivoPO
NORAD 21355·DEBRIS·🇺🇸 United States

Lançado Jun 12, 1975 de Vandenberg Space Force Base

Loading…

Próximas Passagens (próximas 24 horas)

TLE

AtualizadoSource: Space-Track

Época: Sep 14, 2026, 08:20 UTC

1 21355U 75052BZ  26257.34753675 -.00000010  00000-0  72822-4 0  9994
2 21355  99.6512 221.9174 0150087 158.0593   0.6690 13.14198905693840

Acompanhe DELTA 1 DEB em tempo real com AllMySat

Download on the App Store